Dewpoint
33 26 27 25 23 18 18 18 17 19 21 19 19 22 24 29 41 42 44 47 50 51 52 51 52 52 51 53 55 56 56 56 56 56 56 56 55 56 58 58 57 55 54 53
28 25 27 28 25 22 20 19 18 20 22 21 18 21 23 30 34 38 40 45 49 51 51 51 51 51 52 52 54 55 55 55 56 56 55 54 55 55 55 57 57 55 54 53
17 22 27 27 25 23 22 20 19 17 20 21 22 22 22 25 35 40 43 44 47 50 51 50 50 51 52 51 52 53 55 55 55 55 54 55 54 54 55 55 56 56 54 54
21 18 26 24 23 23 20 22 21 20 19 10 25 19 22 23 24 30 35 42 45 49 51 51 50 49 50 51 52 54 54 53 54 54 53 54 52 51 52 54 54 55 56 56
24 25 24 23 23 23 19 22 22 21 20 19 18 20 22 25 23 23 25 33 42 46 49 51 50 50 49 50 51 53 53 53 53 53 52 53 53 52 53 52 53 53 55 56
24 29 26 21 23 23 24 22 24 26 24 20 22 21 20 21 23 24 25 28 36 44 48 50 51 50 50 50 51 52 52 52 53 52 52 51 52 52 49 49 50 51 53 54
25 23 27 26 24 24 23 22 18 20 21 18 23 22 21 24 23 25 26 27 31 42 47 49 50 50 50 50 50 51 51 51 52 52 51 51 51 52 51 49 49 49 49 49
19 16 25 27 25 24 24 22 20 14 18 19 24 21 21 26 28 28 27 28 32 38 46 48 50 50 50 50 51 50 50 50 52 52 51 51 51 50 50 51 49 49 49 49
17 15 21 25 27 26 26 23 25 22 25 22 22 25 27 27 28 28 27 28 29 33 43 47 49 50 50 50 50 50 50 50 51 52 51 51 50 50 50 50 51 51 50 51
24 19 23 22 25 26 25 27 23 24 17 16 20 23 20 22 22 23 24 26 29 32 40 46 49 50 50 50 51 51 51 51 51 51 51 51 51 50 51 51 50 50 51 51
23 23 22 23 22 22 24 23 25 24 24 17 17 19 26 24 24 25 26 28 30 30 37 45 47 50 50 50 50 50 50 50 51 51 51 51 51 51 50 50 50 51 51 52
35 28 19 19 22 24 24 23 24 23 21 26 24 21 25 26 27 28 28 29 31 29 34 42 46 49 50 50 50 50 50 50 51 52 52 51 51 51 50 50 50 51 51 52
33 31 27 24 25 31 30 29 30 28 26 21 23 22 28 29 28 29 29 30 30 28 30 39 44 47 49 50 50 49 50 50 51 51 52 51 51 51 50 51 51 52 52 52
39 31 31 28 32 35 31 31 31 29 27 23 22 21 24 24 25 26 27 28 28 30 28 33 39 45 48 49 50 49 50 50 51 50 51 51 51 51 51 51 51 51 51 52
35 28 29 28 30 34 31 29 27 23 27 27 27 23 23 25 26 27 28 30 29 29 30 29 32 38 45 48 49 49 50 50 50 50 50 50 51 51 50 50 50 50 50 51
30 30 34 30 32 31 29 29 27 25 27 27 25 26 27 27 28 28 28 29 30 30 30 31 31 34 39 46 49 50 50 50 50 50 50 50 50 51 50 50 50 50 51 52
26 32 30 25 30 29 22 24 24 26 26 26 24 24 24 27 27 28 29 30 30 31 32 32 33 32 36 41 47 49 50 51 51 50 50 51 51 51 52 51 51 51 53 54
25 28 30 26 26 18 16 25 27 27 26 28 26 27 36 35 35 32 30 31 31 31 30 31 33 34 35 39 44 48 50 51 51 51 51 51 52 52 52 53 53 54 55 55
28 28 27 26 24 21 20 17 20 22 21 34 37 37 38 37 36 32 34 35 31 31 31 32 33 34 35 38 43 46 49 50 51 51 52 52 53 53 54 54 54 50 50 49
32 31 28 28 22 18 18 28 37 31 21 34 35 34 37 37 34 35 38 39 39 36 31 30 32 33 35 40 49 48 49 50 50 51 52 53 54 54 53 51 48 47 46 44
29 30 26 27 24 25 28 30 40 24 24 33 34 33 36 34 35 38 40 39 40 42 41 47 47 43 44 50 52 51 53 52 53 53 53 52 51 50 48 46 45 43 41 38
25 26 26 25 25 21 30 34 26 25 31 33 32 33 36 37 39 40 39 39 40 42 47 49 49 49 50 52 53 52 51 50 49 49 48 47 46 45 44 42 40 38 36 33
22 27 26 29 26 30 35 35 33 35 35 35 34 35 36 38 37 38 39 40 40 43 46 47 48 48 48 50 50 47 46 47 46 45 44 43 42 41 41 38 36 34 33 31
27 29 27 25 25 24 24 30 39 39 39 39 40 38 38 39 38 40 40 42 40 43 45 45 45 44 44 45 46 46 45 44 43 41 40 39 37 37 36 35 35 34 32 31
24 26 25 24 26 32 29 37 39 38 39 37 36 37 39 38 38 39 41 40 41 41 41 42 41 40 39 42 42 43 43 42 40 38 36 35 33 32 31 30 32 32 32 32
32 28 26 23 35 35 35 37 38 36 35 33 31 30 31 30 32 38 34 32 31 32 34 35 34 33 31 31 32 36 37 38 36 34 33 32 32 30 29 28 26 28 28 28
Wind_Speed
9 12 21 25 23 7 10 11 9 7 5 4 9 11 17 8 9 13 15 15 16 13 12 15 14 12 10 10 12 11 14 13 14 15 15 15 15 15 13 11 10 14 16 18
7 26 18 13 15 16 10 10 12 14 6 9 14 13 16 8 10 12 15 19 18 13 13 16 17 15 13 13 14 15 14 16 15 14 12 10 13 9 11 10 13 17 18 16
26 10 20 17 14 17 19 25 18 16 6 6 10 10 9 7 7 9 12 14 17 20 20 18 20 19 16 15 15 16 16 17 16 14 13 13 11 10 10 14 13 15 14 15
17 18 14 17 24 22 22 17 16 13 4 10 4 13 8 14 15 12 14 16 19 20 20 21 23 22 22 20 17 18 18 18 17 19 15 18 19 15 12 18 17 12 12 10
12 17 24 11 22 17 16 10 16 12 10 6 10 11 6 6 10 14 13 14 18 22 24 27 27 27 24 21 19 19 20 21 19 20 21 18 18 14 15 14 20 19 13 13
11 5 10 21 13 23 9 4 2 2 3 11 11 9 10 10 15 14 16 14 14 19 23 23 23 22 25 23 20 20 19 19 20 22 21 22 21 19 16 16 21 20 19 19
13 14 5 5 16 12 9 5 4 4 7 13 7 12 22 12 20 17 18 16 12 11 20 22 25 26 25 27 25 24 24 23 22 23 23 22 22 20 21 18 18 16 16 16
16 13 15 11 9 11 20 20 9 9 9 6 6 8 10 11 11 11 13 15 13 11 17 24 28 29 29 29 29 27 26 24 25 25 25 23 23 21 20 21 19 18 19 17
13 11 5 14 14 14 7 14 16 2 1 4 5 5 12 11 12 9 10 10 13 9 15 20 22 27 28 30 33 32 28 25 25 27 25 25 23 24 22 21 19 17 16 15
4 3 6 7 9 11 12 13 6 5 8 15 7 6 10 1 8 13 11 13 15 10 10 16 21 26 27 27 29 31 31 31 28 29 27 26 27 26 24 22 24 22 19 18
2 1 4 3 5 13 9 13 5 6 7 13 16 10 12 19 17 13 13 12 11 14 10 14 16 17 20 22 26 30 32 32 30 29 27 28 28 29 28 27 26 26 23 22
5 3 10 9 11 5 4 5 12 12 12 5 6 18 5 14 14 9 16 17 13 13 8 10 13 15 19 23 25 29 28 30 30 30 30 29 27 29 31 32 34 31 34 30
9 3 2 1 1 5 6 6 7 7 8 19 15 7 7 9 13 17 15 17 13 8 5 8 12 17 19 22 23 24 26 29 26 28 29 29 28 27 29 30 27 24 24 23
3 4 3 4 1 2 3 6 4 3 5 10 19 17 16 21 23 22 21 20 22 15 8 7 11 15 18 21 23 24 24 25 26 28 29 30 31 32 31 28 26 25 24 24
3 6 8 8 11 10 8 12 12 12 11 11 11 17 15 17 21 25 21 20 18 21 15 14 15 15 17 19 21 22 23 25 26 28 29 34 29 28 27 26 26 24 23 24
10 1 2 5 11 13 15 14 16 11 3 3 8 12 10 19 20 18 23 21 21 20 21 20 17 15 18 20 22 21 23 25 27 28 30 25 25 26 29 28 27 25 24 23
6 1 3 4 2 5 12 18 21 12 10 7 9 8 9 16 22 23 24 21 18 18 19 19 20 20 19 21 22 24 27 24 27 27 25 25 25 26 25 25 25 25 25 21
5 2 0 2 3 9 5 7 8 14 16 15 13 8 9 11 18 23 20 22 20 19 20 22 20 19 22 20 19 22 21 25 25 26 25 24 25 25 24 23 23 22 19 18
18 8 4 5 8 12 17 10 3 6 10 7 8 10 13 19 16 8 15 19 22 24 22 22 17 17 17 18 18 18 18 21 23 25 26 25 24 24 23 22 16 13 14 13
17 15 11 4 3 6 5 3 2 3 11 5 2 8 11 17 14 9 22 25 25 22 20 20 18 17 16 15 13 19 20 21 23 21 20 20 21 19 15 15 15 10 13 12
9 8 18 12 6 10 13 7 2 1 5 7 6 9 10 10 8 20 20 20 19 17 18 13 11 10 11 4 10 14 15 16 12 13 14 14 13 15 16 14 13 15 16 17
11 11 8 7 8 12 5 3 3 8 14 11 15 16 11 14 16 11 19 19 23 19 16 13 5 5 4 1 8 8 9 14 19 20 19 17 16 15 14 17 15 16 19 19
8 9 8 13 9 3 2 5 10 12 17 20 19 24 16 13 15 17 19 15 18 14 11 11 6 5 10 6 12 16 11 15 19 19 19 17 17 16 16 19 18 17 16 19
8 6 8 12 6 19 23 8 10 14 15 20 20 22 20 17 13 15 19 16 16 14 12 11 12 12 14 9 9 15 13 13 19 20 19 17 16 19 16 14 14 16 17 16
7 4 10 16 17 16 16 10 19 20 16 18 18 19 11 12 12 14 15 20 18 14 11 15 16 17 19 14 12 10 14 16 18 17 17 19 18 19 18 16 11 13 9 15
4 6 10 15 2 5 8 15 14 16 16 14 14 17 16 15 15 14 15 15 15 14 14 12 18 20 16 17 19 15 12 14 15 16 14 15 15 16 18 18 23 28 24 24
Wind_Direction
187 193 211 198 199 205 203 214 232 247 219 283 256 265 289 281 236 242 225 223 212 218 207 184 177 180 190 188 183 177 160 155 151 160 161 152 164 162 170 155 179 185 176 176
167 220 218 189 204 212 216 218 237 288 299 228 273 280 287 265 259 243 235 220 215 197 193 190 179 176 191 191 189 187 168 165 164 170 173 173 168 170 178 164 176 192 169 177
209 223 199 187 200 210 222 232 234 246 321 262 283 278 274 292 256 255 237 232 219 204 193 195 188 182 184 197 195 189 178 177 172 156 137 134 114 115 153 160 171 186 169 178
219 221 181 198 208 203 231 228 235 249 256 272 349 289 272 280 277 263 256 226 218 206 198 192 193 187 187 196 197 190 188 183 184 173 163 165 175 175 176 178 169 168 181 185
208 209 208 197 214 190 238 180 205 227 238 261 256 275 259 277 271 278 273 250 227 208 199 195 194 190 188 188 197 196 189 185 184 182 182 174 183 172 160 161 161 176 193 199
210 195 197 215 205 189 228 164 131 112 195 252 223 225 277 239 247 260 258 260 245 209 204 199 192 189 185 186 189 196 194 195 188 189 191 191 189 186 170 171 177 186 185 201
220 217 185 174 188 187 199 173 256 248 213 240 205 195 248 263 254 251 268 285 272 213 199 195 189 189 185 185 186 194 198 200 197 197 194 196 198 195 191 183 191 190 196 204
199 226 193 189 182 192 206 204 200 228 228 245 136 214 245 255 275 262 256 268 284 238 202 199 193 190 191 186 187 190 196 200 199 198 200 199 203 205 207 207 205 209 208 212
194 232 229 202 190 174 170 192 206 241 134 298 223 254 285 277 270 275 267 282 293 265 217 207 198 197 192 191 188 188 191 197 200 200 200 202 205 209 211 212 213 215 217 216
210 182 194 200 189 215 203 156 158 205 237 249 233 237 229 268 266 272 273 291 299 295 227 211 202 200 200 197 190 188 190 192 196 199 200 201 202 206 209 214 219 221 225 225
192 39 170 107 179 183 186 209 206 198 217 246 260 247 219 239 255 273 282 279 293 305 249 218 209 210 207 196 194 192 194 194 194 195 199 202 201 202 204 210 215 217 216 218
13 105 236 260 275 223 229 215 236 242 228 218 255 251 283 250 258 267 290 286 294 289 275 222 208 201 204 204 198 198 197 197 194 191 191 203 206 203 204 210 211 210 213 210
346 44 150 202 214 35 75 40 9 325 257 246 251 253 324 300 281 277 279 289 298 279 285 225 207 207 209 208 205 206 201 203 194 193 195 196 203 207 211 214 217 218 222 223
293 142 101 184 341 331 339 320 337 353 266 272 255 274 266 279 288 289 293 280 287 284 259 243 227 219 213 212 208 205 205 199 193 195 201 202 201 205 210 215 216 215 215 214
354 216 202 221 234 215 242 267 281 288 261 256 283 269 284 281 274 268 268 276 277 281 277 245 243 235 221 214 210 207 206 196 192 197 205 212 206 206 210 215 217 219 216 216
349 215 189 259 258 253 258 259 271 264 251 299 318 283 276 292 296 279 274 274 276 269 264 259 251 239 236 220 217 203 200 197 192 200 210 211 209 207 210 211 213 216 216 217
317 294 144 253 307 272 265 242 233 226 230 210 265 254 294 296 287 278 279 274 270 276 276 265 256 252 238 225 213 211 202 189 195 203 206 208 206 210 213 215 215 217 218 217
231 307 59 266 299 243 269 315 261 242 267 260 284 311 320 313 292 280 292 277 280 272 275 279 269 253 247 231 210 212 199 192 196 201 204 203 204 210 212 212 216 219 219 214
202 196 225 224 218 291 295 280 258 225 279 31 358 336 317 321 307 41 355 322 295 290 283 281 276 268 260 245 224 200 200 198 194 199 201 202 200 204 206 209 198 167 172 173
183 198 199 198 217 249 267 203 37 74 282 329 298 322 317 339 356 322 326 328 319 305 292 293 289 276 267 250 206 192 196 196 205 199 199 197 193 197 184 166 159 156 149 141
163 181 211 231 235 267 246 270 109 61 320 318 301 320 331 321 290 299 308 322 324 315 309 300 283 287 286 237 195 200 182 185 165 142 131 126 128 136 140 138 136 131 124 114
178 182 195 208 240 264 221 172 151 329 312 296 290 301 311 314 299 306 317 334 335 343 342 334 4 6 11 165 151 149 141 118 115 119 121 120 124 125 123 126 121 122 123 118
230 203 191 200 212 259 297 284 330 340 315 308 300 294 291 309 321 327 321 347 337 334 1 0 10 61 81 63 109 118 122 119 116 115 118 119 117 113 122 129 127 120 120 122
228 215 235 258 270 268 285 326 12 335 313 318 320 296 286 296 326 349 339 358 353 342 36 36 38 28 47 47 97 118 117 118 112 115 112 108 110 106 106 108 119 127 129 126
219 172 242 267 277 299 279 18 356 336 344 343 342 354 343 356 337 334 20 18 359 352 19 68 63 41 22 35 51 77 106 114 111 112 118 116 111 107 97 80 91 112 108 144
205 221 241 273 187 268 291 318 343 339 344 351 354 357 7 18 359 351 45 36 7 359 12 46 78 68 40 25 33 32 58 96 110 110 106 102 106 108 102 93 78 67 81 84